[[{"header":{"parameterUnit":"m.s-1","parameterCategory":1,"la1":30.2991,"la2":30.254,"lo1":-89.0895,"lo2":-89.0444,"dx":0.0017,"dy":0.0017,"nx":28,"ny":28,"refTime":"2022-11-18T15:00:00:Z","depth":0,"parameterNumber":2,"parameterNumberName":"U-component_of_WINDS"},"data":[0,0,0,0,0,0,0,0,0,0,0,0,0,0,0,0,0,0,0,0,0,0,0,0,0,0,0,0,0,0,0,0,0,0,0,0,0,0,0,0,0,0,0,0,0,0,0,0,0,0,0,0,0,0,0,0,0,0,-3.2077,-3.2077,0,-3.2073,-3.2073,-3.2073,-3.1989,-3.1987,-3.1984,-3.1982,-3.198,-3.1982,-3.1984,0,0,0,0,0,0,0,0,0,0,0,0,0,-3.2014,-3.2016,-3.2077,-3.2077,-3.2077,-3.2073,-3.2073,-3.2073,-3.1989,-3.1987,-3.1984,-3.1981,-3.1979,-3.1981,-3.1984,0,0,0,0,0,0,0,0,0,0,0,0,0,-3.2029,-3.2016,-3.2077,-3.2035,-3.2031,-3.2073,-3.2073,-3.2073,-3.199,-3.1986,-3.1983,-3.198,-3.1978,-3.1981,-3.1984,-3.2067,0,0,-3.1993,-3.1994,0,0,0,0,0,0,0,0,-3.2028,-3.2031,-3.2041,-3.2038,-3.2034,-3.2028,-3.205,-3.2071,-3.1991,-3.2005,-3.1982,-3.1979,-3.1999,-3.2,-3.2006,-3.2067,-3.2067,-3.1993,-3.1995,-3.1996,-3.1997,0,0,0,0,0,0,0,-3.2027,-3.2031,-3.2075,-3.2041,-3.2037,-3.2016,-3.2015,-3.2053,-3.202,-3.2004,-3.1998,-3.1998,-3.1996,-3.2003,-3.2005,-3.2067,-3.1993,-3.1996,-3.1998,-3.1999,-3.2196,-3.22,0,0,0,0,0,0,-3.2032,-3.2031,-3.2076,-3.2075,-3.2023,-3.202,-3.2019,-3.2033,-3.202,-3.2014,-3.2001,-3.1994,-3.2,-3.2002,-3.2005,-3.2102,-3.1996,-3.1999,-3.2001,-3.2193,-3.2197,-3.2201,0,0,0,0,0,0,-3.2031,-3.2037,-3.2076,-3.2051,-3.2055,-3.2025,-3.2042,-3.2035,-3.2042,-3.2017,-3.2011,-3.2015,-3.1998,-3.2001,-3.2052,-3.2101,-3.2,-3.2003,-3.2189,-3.2194,-3.2199,-3.2297,0,0,0,0,0,0,-3.2029,-3.2037,-3.2068,-3.2053,-3.2056,-3.2123,-3.2045,-3.2037,-3.2047,-3.2038,-3.2029,-3.2024,-3.1995,-3.2048,-3.2055,-3.2103,-3.2005,-3.2184,-3.2191,-3.2197,-3.2289,-3.2305,-3.2318,0,0,0,0,0,-3.2027,-3.2096,-3.207,-3.2076,-3.2094,-3.2126,-3.2128,-3.2093,-3.2051,-3.2083,-3.2067,-3.2024,-3.2094,-3.2054,-3.2061,-3.2111,-3.2181,-3.2189,-3.2197,-3.2283,-3.2302,-3.2318,0,0,0,0,0,0,-3.2117,-3.2093,-3.2064,-3.2129,-3.213,-3.2112,-3.215,-3.2115,-3.2128,-3.2119,-3.2076,-3.2074,-3.2133,-3.2127,-3.2083,-3.2191,-3.213,-3.214,-3.2193,-3.2211,-3.2225,-3.2227,-3.2008,0,0,0,0,0,-3.2145,-3.2172,-3.2149,-3.2209,-3.2211,-3.2181,-3.2193,-3.2166,-3.2166,-3.2166,-3.2154,-3.2156,-3.2178,-3.2194,-3.2213,-3.2287,-3.2285,-3.2325,-3.2339,-3.2352,-3.2361,-3.2401,-3.2419,-3.2227,-3.2227,-3.2227,0,0,-3.2202,-3.2192,-3.2212,-3.2227,-3.2225,-3.2255,-3.2182,-3.2216,-3.2239,-3.2171,-3.222,-3.2211,-3.221,-3.2274,-3.2301,-3.2271,-3.2413,-3.2362,-3.2371,-3.2374,-3.2411,-3.243,-3.2446,-3.2232,-3.2231,-3.223,0,0,-3.2321,-3.2316,-3.2366,-3.2365,-3.2362,-3.2342,-3.2354,-3.2341,-3.2333,-3.238,-3.2331,-3.2356,-3.2395,-3.2397,-3.2403,-3.2524,-3.2486,-3.2531,-3.2608,-3.2648,-3.2663,-3.2676,-3.2721,-3.2737,-3.254,-3.2541,-3.2541,0,-3.2393,-3.2436,-3.2396,-3.2434,-3.2443,-3.2383,-3.2434,-3.2435,-3.2439,-3.2447,-3.2412,-3.246,-3.2455,-3.2519,-3.2549,-3.2555,-3.2568,-3.2533,-3.2664,-3.2677,-3.2689,-3.2731,-3.2748,-3.2546,-3.2546,-3.2545,-3.2545,0,-3.2525,-3.2555,-3.2596,-3.2602,-3.2614,-3.2659,-3.2626,-3.2644,-3.2616,-3.2599,-3.2649,-3.2641,-3.2658,-3.2671,-3.2643,-3.2731,-3.2712,-3.2671,-3.261,-3.2713,-3.2752,-3.2768,-3.2555,-3.2552,-3.2551,-3.2549,0,0,-3.2702,-3.2685,-3.2701,-3.2703,-3.2696,-3.2719,-3.2761,-3.2777,-3.2794,-3.2799,-3.2834,-3.2868,-3.283,-3.2837,-3.2809,-3.2844,-3.2943,-3.2799,-3.2798,-3.2827,-3.3041,-3.3074,-3.3093,-3.2916,-3.2919,-3.2921,-3.3042,0,-3.2819,-3.289,-3.2855,-3.293,-3.2959,-3.2902,-3.2939,-3.2939,-3.2924,-3.2947,-3.293,-3.2956,-3.2903,-3.2907,-3.2939,-3.2924,-3.2985,-3.2914,-3.295,-3.2952,-3.2954,-3.3113,-3.3147,-3.3261,-3.3056,-3.3059,-3.3061,0,-3.2966,-3.2977,-3.3055,-3.3043,-3.3054,-3.3087,-3.31,-3.3122,-3.3121,-3.3108,-3.3116,-3.308,-3.3121,-3.3059,-3.3116,-3.3068,-3.3081,-3.3075,-3.3079,-3.3083,-3.3014,-3.3123,-3.3296,-3.3314,-3.3084,-3.3082,-3.308,0,-3.309,-3.3124,-3.3175,-3.3179,-3.3166,-3.3191,-3.3187,-3.3182,-3.3195,-3.3206,-3.3213,-3.3229,-3.3238,-3.3252,-3.3222,-3.3179,-3.3283,-3.3218,-3.3275,-3.3276,-3.3301,-3.33,-3.3481,-3.3306,-3.3306,-3.3305,-3.3305,0,-3.3226,-3.3276,-3.3231,-3.3263,-3.3318,-3.3278,-3.3334,-3.3323,-3.332,-3.3349,-3.33,-3.3329,-3.3287,-3.3312,-3.3288,-3.334,-3.3344,-3.3335,-3.3329,-3.3341,-3.3342,-3.335,-3.3342,-3.331,-3.3309,-3.3308,-3.3307,0,-3.3374,-3.3346,-3.3399,-3.3382,-3.3379,-3.3421,-3.3407,-3.3436,-3.3417,-3.3456,-3.3462,-3.3434,-3.3461,-3.3431,-3.3456,-3.344,-3.351,-3.3491,-3.3511,-3.3506,-3.3566,-3.3562,-3.376,-3.3784,-3.3592,-3.3593,-3.3595,0,-3.3464,-3.3502,-3.3489,-3.3505,-3.3504,-3.353,-3.3542,-3.3504,-3.3519,-3.3521,-3.355,-3.3573,-3.3589,-3.3634,-3.3617,-3.3635,-3.3618,-3.3686,-3.362,-3.3632,-3.3621,-3.362,-3.3625,-3.37,-3.3702,-3.3704,-3.3705,0,-3.3627,-3.3611,-3.363,-3.3645,-3.3661,-3.3671,-3.3677,-3.3693,-3.3653,-3.3672,-3.3699,-3.3712,-3.3737,-3.376,-3.3774,-3.377,-3.3733,-3.3726,-3.374,-3.3754,-3.3765,-3.3762,-3.355,-3.3722,-3.372,-3.3719,-3.3718,-3.3718,-3.375,-3.3781,-3.3777,-3.3801,-3.3801,-3.3808,-3.3835,-3.382,-3.3842,-3.3859,-3.3835,-3.3868,-3.3867,-3.3881,-3.3882,-3.3908,-3.3879,-3.39,-3.3905,-3.3912,-3.3922,-3.3759,-3.391,-3.391,-3.3909,-3.3909,-3.3908,0,-3.3912,-3.3906,-3.3928,-3.3938,-3.3957,-3.3918,-3.3923,-3.3942,-3.3972,-3.3973,-3.399,-3.4022,-3.4044,-3.4028,-3.4047,-3.4072,-3.4055,-3.4078,-3.4077,-3.4077,-3.3945,-3.3932,-3.4092,-3.4092,-3.4092,-3.4091,-3.4091,-3.4091,-3.3998,-3.4049,-3.4033,-3.4085,-3.4079,-3.4111,-3.4118,-3.4124,-3.4125,-3.4162,-3.4181,-3.417,-3.4165,-3.4183,-3.4202,-3.4197,-3.4207,-3.4238,-3.4227,-3.4104,-3.4086,-3.4069,-3.4056,-3.424,-3.424,-3.4356,-3.4358,-3.4358]},{"header":{"parameterUnit":"m.s-1","parameterCategory":1,"la1":30.2991,"la2":30.254,"lo1":-89.0895,"lo2":-89.0444,"dx":0.0017,"dy":0.0017,"nx":28,"ny":28,"refTime":"2022-11-18T15:00:00:Z","depth":0,"parameterNumber":3,"parameterNumberName":"V-component_of_WINDS"},"data":[0,0,0,0,0,0,0,0,0,0,0,0,0,0,0,0,0,0,0,0,0,0,0,0,0,0,0,0,0,0,0,0,0,0,0,0,0,0,0,0,0,0,0,0,0,0,0,0,0,0,0,0,0,0,0,0,0,0,-3.4294,-3.4295,0,-3.432,-3.4321,-3.4321,-3.4289,-3.4288,-3.4287,-3.4285,-3.431,-3.4312,-3.4314,0,0,0,0,0,0,0,0,0,0,0,0,0,-3.4215,-3.4217,-3.4294,-3.4295,-3.4295,-3.432,-3.4321,-3.4321,-3.4289,-3.4288,-3.4286,-3.4285,-3.431,-3.4312,-3.4314,0,0,0,0,0,0,0,0,0,0,0,0,0,-3.4246,-3.4217,-3.4294,-3.4282,-3.4281,-3.432,-3.4321,-3.4321,-3.4289,-3.4288,-3.4286,-3.4284,-3.4309,-3.4312,-3.4314,-3.4366,0,0,-3.4322,-3.4323,0,0,0,0,0,0,0,0,-3.4244,-3.4249,-3.4284,-3.4283,-3.4282,-3.43,-3.4302,-3.4336,-3.429,-3.4286,-3.4285,-3.4283,-3.4308,-3.4311,-3.4319,-3.4367,-3.4368,-3.4322,-3.4324,-3.4325,-3.4326,0,0,0,0,0,0,0,-3.4242,-3.4248,-3.4305,-3.4284,-3.4283,-3.4275,-3.4277,-3.4308,-3.4307,-3.4286,-3.4284,-3.4288,-3.4307,-3.4317,-3.432,-3.4368,-3.4322,-3.4325,-3.4326,-3.4327,-3.4459,-3.4461,0,0,0,0,0,0,-3.4242,-3.4246,-3.4304,-3.4305,-3.4259,-3.4278,-3.428,-3.4296,-3.4306,-3.4306,-3.4289,-3.4286,-3.4313,-3.4317,-3.432,-3.4382,-3.4325,-3.4328,-3.4329,-3.4457,-3.446,-3.4462,0,0,0,0,0,0,-3.424,-3.4247,-3.4303,-3.4275,-3.4282,-3.4281,-3.4298,-3.4297,-3.4307,-3.4308,-3.4308,-3.43,-3.4312,-3.4317,-3.4355,-3.4382,-3.4329,-3.4331,-3.4455,-3.4458,-3.4461,-3.4505,0,0,0,0,0,0,-3.4238,-3.4247,-3.4267,-3.4276,-3.4283,-3.4337,-3.43,-3.4299,-3.4312,-3.4308,-3.4318,-3.4318,-3.4311,-3.4351,-3.4357,-3.4385,-3.4333,-3.4453,-3.4456,-3.446,-3.4501,-3.4509,-3.4516,0,0,0,0,0,-3.4235,-3.4278,-3.4268,-3.4275,-3.4308,-3.4339,-3.4343,-3.4335,-3.4314,-3.4334,-3.4335,-3.4317,-3.4378,-3.4355,-3.4362,-3.4391,-3.4451,-3.4455,-3.446,-3.4498,-3.4508,-3.4516,0,0,0,0,0,0,-3.4271,-3.4279,-3.4268,-3.4315,-3.4327,-3.4334,-3.4359,-3.4345,-3.4363,-3.4359,-3.4347,-3.435,-3.439,-3.4394,-3.4369,-3.4441,-3.4411,-3.4417,-3.4438,-3.4447,-3.4454,-3.4453,-3.4335,0,0,0,0,0,-3.4285,-3.431,-3.4314,-3.4355,-3.4362,-3.4359,-3.4372,-3.4365,-3.4377,-3.4381,-3.4385,-3.4396,-3.4418,-3.4432,-3.4452,-3.4501,-3.4503,-3.4524,-3.4532,-3.4538,-3.4543,-3.457,-3.4579,-3.4476,-3.4476,-3.4476,0,0,-3.4313,-3.432,-3.4336,-3.4363,-3.4371,-3.4397,-3.4364,-3.4392,-3.4411,-3.4385,-3.4422,-3.4425,-3.4437,-3.4481,-3.45,-3.4485,-3.4572,-3.4543,-3.4548,-3.455,-3.4575,-3.4585,-3.4594,-3.4479,-3.4478,-3.4478,0,0,-3.4377,-3.4385,-3.442,-3.4429,-3.4442,-3.444,-3.4449,-3.4458,-3.4459,-3.4496,-3.4477,-3.4499,-3.4536,-3.4546,-3.4555,-3.4623,-3.4608,-3.463,-3.4669,-3.4695,-3.4703,-3.471,-3.4735,-3.4744,-3.4635,-3.4635,-3.4635,0,-3.441,-3.4449,-3.4439,-3.447,-3.4482,-3.446,-3.4496,-3.4505,-3.4523,-3.4532,-3.4515,-3.4562,-3.4568,-3.4614,-3.4631,-3.4639,-3.4648,-3.4629,-3.4703,-3.471,-3.4716,-3.474,-3.4749,-3.4638,-3.4638,-3.4637,-3.4637,0,-3.4489,-3.4516,-3.4543,-3.4563,-3.4577,-3.461,-3.4605,-3.4621,-3.4613,-3.4612,-3.465,-3.4657,-3.4678,-3.4688,-3.4679,-3.4733,-3.4723,-3.4705,-3.4674,-3.4729,-3.4751,-3.476,-3.4642,-3.4641,-3.464,-3.4639,0,0,-3.4577,-3.4592,-3.4602,-3.4611,-3.4624,-3.4644,-3.4675,-3.4697,-3.4711,-3.4725,-3.4751,-3.4783,-3.4766,-3.4777,-3.4769,-3.4792,-3.4846,-3.477,-3.477,-3.4785,-3.4906,-3.4921,-3.4932,-3.4835,-3.4837,-3.4838,-3.4905,0,-3.4642,-3.4698,-3.469,-3.4743,-3.4769,-3.4748,-3.4775,-3.4786,-3.4786,-3.4807,-3.4807,-3.4831,-3.4806,-3.4812,-3.4834,-3.4835,-3.487,-3.483,-3.486,-3.4861,-3.4859,-3.4943,-3.4959,-3.5022,-3.4914,-3.4915,-3.4916,0,-3.4726,-3.4744,-3.48,-3.4809,-3.482,-3.4844,-3.4864,-3.4884,-3.4895,-3.4894,-3.4906,-3.4894,-3.4925,-3.4893,-3.4936,-3.4909,-3.492,-3.4922,-3.4924,-3.4928,-3.4893,-3.4949,-3.5042,-3.5051,-3.493,-3.4929,-3.4928,0,-3.4786,-3.4824,-3.4862,-3.487,-3.4882,-3.49,-3.4906,-3.4915,-3.4929,-3.4945,-3.4954,-3.4973,-3.4984,-3.4999,-3.4993,-3.497,-3.5037,-3.5004,-3.5037,-3.5037,-3.5052,-3.5052,-3.5149,-3.5058,-3.5058,-3.5058,-3.5058,0,-3.486,-3.4896,-3.4889,-3.4913,-3.4952,-3.4943,-3.4981,-3.4984,-3.4993,-3.5016,-3.4999,-3.5021,-3.5011,-3.5032,-3.5027,-3.5064,-3.5068,-3.5068,-3.5066,-3.507,-3.5071,-3.5078,-3.5074,-3.506,-3.506,-3.5059,-3.5059,0,-3.4935,-3.4932,-3.4973,-3.4981,-3.4983,-3.5012,-3.5018,-3.504,-3.5039,-3.5069,-3.5076,-3.5074,-3.5098,-3.5093,-3.512,-3.5116,-3.5162,-3.5154,-3.5159,-3.5157,-3.519,-3.5188,-3.5297,-3.5311,-3.521,-3.5211,-3.5212,0,-3.4983,-3.501,-3.5021,-3.5036,-3.5043,-3.5067,-3.5081,-3.5072,-3.5088,-3.5103,-3.5123,-3.5146,-3.5164,-3.5204,-3.5205,-3.5225,-3.5218,-3.5255,-3.5221,-3.5224,-3.522,-3.5219,-3.5222,-3.5262,-3.5263,-3.5264,-3.5265,0,-3.5069,-3.5066,-3.5087,-3.5108,-3.5126,-3.5141,-3.5155,-3.5168,-3.5161,-3.5178,-3.5204,-3.5218,-3.5245,-3.5268,-3.5287,-3.5292,-3.5278,-3.5275,-3.5284,-3.5289,-3.5291,-3.5291,-3.5178,-3.5273,-3.5272,-3.5272,-3.5271,-3.5271,-3.5132,-3.5155,-3.5167,-3.5191,-3.5201,-3.5214,-3.5236,-3.5238,-3.5259,-3.5281,-3.5274,-3.5303,-3.5314,-3.5337,-3.5345,-3.5367,-3.5353,-3.5365,-3.5369,-3.5372,-3.5377,-3.5286,-3.537,-3.537,-3.5369,-3.5369,-3.5369,0,-3.5218,-3.5225,-3.5247,-3.5268,-3.5287,-3.5271,-3.5286,-3.5303,-3.5329,-3.534,-3.5359,-3.5388,-3.541,-3.5412,-3.5433,-3.5451,-3.5445,-3.5457,-3.5456,-3.5457,-3.5387,-3.5378,-3.5461,-3.5461,-3.5461,-3.5461,-3.5461,-3.5461,-3.5265,-3.5304,-3.5303,-3.5346,-3.5352,-3.5381,-3.539,-3.5403,-3.5412,-3.5445,-3.5464,-3.5466,-3.5474,-3.5495,-3.5515,-3.5515,-3.5524,-3.5539,-3.5536,-3.5471,-3.5462,-3.5453,-3.5445,-3.554,-3.5541,-3.5604,-3.5605,-3.5605]}]]